• In Lithuania
  • List of Countries
  • For 7 days
  • Water Temperature
  • Satellite Maps
  • Weather Map
  • Weather Widgets
  • user-avatar
    Login

    Hourly Weather Baden-Baden

    Today, 18 December, Monday

    Time Temperature Precipitation Wind Pressure Humidity
    00:00 -2°C° 0 mm 3 mps 736 mmHg 85%
    01:00 -2°C° 0 mm 3 mps 736 mmHg 84%
    02:00 -2°C° 0.1 mm 3 mps 736 mmHg 83%
    03:00 -2°C° 0.1 mm 3 mps 735 mmHg 82%
    04:00 -1°C° 0.1 mm 3 mps 734 mmHg 82%
    05:00 -1°C° 0.8 mm 3 mps 734 mmHg 84%
    06:00 -1°C° 0.8 mm 3 mps 733 mmHg 87%
    07:00 -1°C° 0.8 mm 3 mps 732 mmHg 89%
    08:00 -1°C° 0.7 mm 3 mps 732 mmHg 90%
    09:00 -1°C° 0.7 mm 2 mps 732 mmHg 91%
    10:00 -1°C° 0.7 mm 2 mps 732 mmHg 92%
    11:00 +1°C° 0.1 mm 2 mps 732 mmHg 91%
    12:00 +2°C° 0.1 mm 1 mps 733 mmHg 91%
    13:00 +3°C° 0.1 mm 1 mps 733 mmHg 91%
    14:00 +2°C° 0 mm 1 mps 733 mmHg 92%
    15:00 +2°C° 0 mm 1 mps 734 mmHg 92%
    16:00 +1°C° 0 mm 0 mps 734 mmHg 93%
    17:00 +1°C° 0 mm 0 mps 735 mmHg 93%
    18:00 0°C° 0 mm 0 mps 735 mmHg 94%
    19:00 0°C° 0 mm 0 mps 736 mmHg 94%
    20:00 -1°C° 0 mm 0 mps 736 mmHg 94%
    21:00 -1°C° 0 mm 0 mps 737 mmHg 94%
    22:00 -1°C° 0 mm 0 mps 737 mmHg 94%
    23:00 -1°C° 0 mm 0 mps 738 mmHg 94%

    Tomorrow, 19 December, Tuesday

    Time Temperature Precipitation Wind Pressure Humidity
    00:00 -1°C° 0 mm 0 mps 738 mmHg 94%
    01:00 -1°C° 0 mm 0 mps 738 mmHg 94%
    02:00 -1°C° 0 mm 0 mps 739 mmHg 94%
    03:00 -1°C° 0 mm 0 mps 739 mmHg 94%
    04:00 -1°C° 0 mm 0 mps 739 mmHg 94%
    05:00 -1°C° 0 mm 0 mps 740 mmHg 94%
    06:00 0°C° 0 mm 0 mps 740 mmHg 94%
    07:00 0°C° 0 mm 0 mps 740 mmHg 94%
    08:00 0°C° 0 mm 0 mps 741 mmHg 93%
    09:00 +1°C° 0 mm 0 mps 741 mmHg 93%
    10:00 +1°C° 0 mm 0 mps 742 mmHg 93%
    11:00 +1°C° 0 mm 0 mps 742 mmHg 91%
    12:00 +2°C° 0 mm 0 mps 742 mmHg 90%
    13:00 +3°C° 0 mm 1 mps 742 mmHg 89%
    14:00 +3°C° 0 mm 1 mps 742 mmHg 91%
    15:00 +2°C° 0 mm 1 mps 742 mmHg 92%
    16:00 +2°C° 0 mm 1 mps 742 mmHg 94%
    17:00 +1°C° 0 mm 0 mps 743 mmHg 94%
    18:00 0°C° 0 mm 0 mps 743 mmHg 94%
    19:00 0°C° 0 mm 0 mps 743 mmHg 94%
    20:00 0°C° 0 mm 0 mps 744 mmHg 94%
    21:00 0°C° 0 mm 0 mps 744 mmHg 94%
    22:00 +1°C° 0 mm 1 mps 744 mmHg 94%
    23:00 +1°C° 0.1 mm 1 mps 744 mmHg 94%

    Day after tomorrow, 20 December, Wednesday

    Time Temperature Precipitation Wind Pressure Humidity
    00:00 +2°C° 0.1 mm 1 mps 744 mmHg 94%
    01:00 +2°C° 0.1 mm 1 mps 744 mmHg 94%
    02:00 +2°C° 0.2 mm 1 mps 743 mmHg 94%
    03:00 +2°C° 0.2 mm 1 mps 743 mmHg 94%
    04:00 +2°C° 0.2 mm 1 mps 743 mmHg 94%
    05:00 +2°C° 0.3 mm 1 mps 743 mmHg 94%
    06:00 +1°C° 0.3 mm 2 mps 743 mmHg 93%
    07:00 +1°C° 0.3 mm 2 mps 743 mmHg 93%
    08:00 +1°C° 0.3 mm 2 mps 743 mmHg 93%
    09:00 +1°C° 0.3 mm 2 mps 743 mmHg 93%
    10:00 +1°C° 0.3 mm 2 mps 743 mmHg 93%
    11:00 +1°C° 0.3 mm 2 mps 743 mmHg 93%
    12:00 +2°C° 0.3 mm 2 mps 743 mmHg 93%
    13:00 +2°C° 0.3 mm 2 mps 742 mmHg 94%
    14:00 +2°C° 0.3 mm 2 mps 742 mmHg 94%
    15:00 +2°C° 0.3 mm 2 mps 742 mmHg 94%
    16:00 +2°C° 0.3 mm 2 mps 742 mmHg 95%
    17:00 +2°C° 0.1 mm 2 mps 743 mmHg 95%
    18:00 +3°C° 0.1 mm 1 mps 743 mmHg 96%
    19:00 +3°C° 0.1 mm 1 mps 743 mmHg 96%
    20:00 +3°C° 0 mm 1 mps 743 mmHg 96%
    21:00 +3°C° 0 mm 1 mps 743 mmHg 97%
    22:00 +3°C° 0 mm 1 mps 744 mmHg 97%
    23:00 +3°C° 0 mm 1 mps 744 mmHg 97%

    21 December, Thursday

    Time Temperature Precipitation Wind Pressure Humidity
    00:00 +3°C° 0 mm 1 mps 744 mmHg 97%
    01:00 +3°C° 0 mm 1 mps 744 mmHg 96%
    02:00 +3°C° 0.1 mm 1 mps 744 mmHg 96%
    03:00 +4°C° 0.1 mm 1 mps 744 mmHg 96%
    04:00 +4°C° 0.1 mm 1 mps 744 mmHg 96%
    05:00 +4°C° 0 mm 1 mps 744 mmHg 96%
    06:00 +4°C° 0 mm 1 mps 744 mmHg 96%
    07:00 +4°C° 0 mm 1 mps 744 mmHg 96%
    08:00 +3°C° 0 mm 2 mps 744 mmHg 96%
    09:00 +3°C° 0 mm 2 mps 744 mmHg 96%
    10:00 +4°C° 0 mm 2 mps 744 mmHg 96%
    11:00 +4°C° 0.1 mm 2 mps 744 mmHg 96%
    12:00 +5°C° 0.1 mm 2 mps 744 mmHg 96%
    13:00 +5°C° 0.1 mm 2 mps 744 mmHg 95%
    14:00 +5°C° 0.2 mm 2 mps 744 mmHg 95%
    15:00 +4°C° 0.2 mm 3 mps 743 mmHg 96%
    16:00 +4°C° 0.2 mm 3 mps 743 mmHg 96%
    17:00 +4°C° 0.6 mm 3 mps 743 mmHg 95%
    18:00 +4°C° 0.6 mm 3 mps 743 mmHg 95%
    19:00 +5°C° 0.6 mm 4 mps 743 mmHg 95%
    20:00 +5°C° 0.3 mm 4 mps 743 mmHg 95%
    21:00 +5°C° 0.3 mm 4 mps 743 mmHg 95%
    22:00 +5°C° 0.3 mm 4 mps 744 mmHg 95%
    23:00 +5°C° 0.2 mm 4 mps 743 mmHg 94%

    22 December, Friday

    Time Temperature Precipitation Wind Pressure Humidity
    00:00 +5°C° 0.2 mm 4 mps 743 mmHg 94%
    01:00 +5°C° 0.2 mm 4 mps 743 mmHg 94%
    02:00 +5°C° 0.1 mm 4 mps 743 mmHg 94%
    03:00 +5°C° 0.1 mm 4 mps 743 mmHg 94%
    04:00 +5°C° 0.1 mm 4 mps 743 mmHg 94%
    05:00 +5°C° 0.2 mm 3 mps 744 mmHg 94%
    06:00 +5°C° 0.2 mm 2 mps 744 mmHg 95%
    07:00 +5°C° 0.2 mm 2 mps 744 mmHg 95%
    08:00 +5°C° 0.1 mm 2 mps 745 mmHg 95%
    09:00 +6°C° 0.1 mm 1 mps 745 mmHg 94%
    10:00 +5°C° 0.1 mm 1 mps 746 mmHg 93%
    11:00 +6°C° 0 mm 1 mps 746 mmHg 89%
    12:00 +6°C° 0 mm 1 mps 746 mmHg 85%
    13:00 +7°C° 0 mm 1 mps 746 mmHg 81%
    14:00 +6°C° 0 mm 1 mps 745 mmHg 83%
    15:00 +6°C° 0 mm 1 mps 745 mmHg 85%
    16:00 +5°C° 0 mm 1 mps 745 mmHg 87%
    17:00 +4°C° 0 mm 1 mps 745 mmHg 89%
    18:00 +4°C° 0 mm 1 mps 745 mmHg 90%
    19:00 +3°C° 0 mm 1 mps 745 mmHg 92%
    20:00 +3°C° 0 mm 1 mps 745 mmHg 92%
    21:00 +1°C° 0 mm 2 mps 745 mmHg 92%
    22:00 +1°C° 0 mm 2 mps 745 mmHg 92%
    23:00 +1°C° 0 mm 2 mps 744 mmHg 92%

    23 December, Saturday

    Time Temperature Precipitation Wind Pressure Humidity
    00:00 +1°C° 0 mm 2 mps 744 mmHg 92%
    01:00 0°C° 0 mm 3 mps 743 mmHg 92%
    02:00 0°C° 0 mm 3 mps 743 mmHg 91%
    03:00 0°C° 0 mm 3 mps 743 mmHg 90%
    04:00 -1°C° 0 mm 4 mps 742 mmHg 90%
    05:00 -1°C° 0 mm 4 mps 742 mmHg 89%
    06:00 0°C° 0 mm 4 mps 742 mmHg 88%
    07:00 0°C° 0 mm 4 mps 742 mmHg 87%
    08:00 +1°C° 0.1 mm 4 mps 742 mmHg 88%
    09:00 +1°C° 0.1 mm 4 mps 742 mmHg 89%
    10:00 +1°C° 0.1 mm 4 mps 742 mmHg 90%
    11:00 +3°C° 0.1 mm 4 mps 742 mmHg 90%
    12:00 +3°C° 0.1 mm 4 mps 742 mmHg 89%
    13:00 +3°C° 0.1 mm 4 mps 742 mmHg 89%
    14:00 +3°C° 0 mm 3 mps 742 mmHg 90%
    15:00 +3°C° 0 mm 3 mps 742 mmHg 91%
    16:00 +4°C° 0 mm 2 mps 742 mmHg 92%
    17:00 +4°C° 0 mm 2 mps 742 mmHg 93%
    18:00 +4°C° 0 mm 2 mps 743 mmHg 94%
    19:00 +4°C° 0 mm 2 mps 743 mmHg 95%
    20:00 +3°C° 0 mm 2 mps 743 mmHg 94%
    21:00 +3°C° 0 mm 2 mps 743 mmHg 94%
    22:00 +3°C° 0 mm 2 mps 743 mmHg 94%
    23:00 +4°C° 0 mm 1 mps 743 mmHg 94%
    Show more